| time (UTC) | temp F | wind direction | speed knots | gust knots | rain 1hr in | rain 24hr in | rain mn in | humidity % | barometer mb |
| 20260906222034 | 77 | 121 | 0.0 | 0.9 | 0.00 | 0.00 | 0.00 | 77 | 1020.9 |
| 20260906221533 | 77 | 327 | 1.7 | 2.6 | 0.00 | 0.00 | 0.00 | 77 | 1020.9 |
| 20260906221029 | 77 | 113 | 0.9 | 1.7 | 0.00 | 0.00 | 0.00 | 77 | 1020.9 |
| 20260906220523 | 77 | 136 | 0.0 | 2.6 | 0.00 | 0.00 | 0.00 | 77 | 1021.0 |
| 20260906220018 | 78 | 112 | 0.0 | 0.9 | 0.00 | 0.00 | 0.00 | 77 | 1021.2 |
| 20260906215517 | 77 | 138 | 0.9 | 4.3 | 0.00 | 0.00 | 0.00 | 76 | 1021.0 |
| 20260906215015 | 78 | 149 | 1.7 | 1.7 | 0.00 | 0.00 | 0.00 | 77 | 1021.4 |
| 20260906214514 | 77 | 149 | 3.5 | 4.3 | 0.00 | 0.00 | 0.00 | 76 | 1021.0 |
| 20260906214009 | 77 | 104 | 0.9 | 2.6 | 0.00 | 0.00 | 0.00 | 76 | 1020.9 |
| 20260906213504 | 78 | 120 | 0.0 | 2.6 | 0.00 | 0.00 | 0.00 | 77 | 1021.0 |
| 20260906213003 | 78 | 98 | 0.9 | 0.9 | 0.00 | 0.00 | 0.00 | 76 | 1021.2 |
| 20260906212456 | 78 | 82 | 0.0 | 0.9 | 0.00 | 0.00 | 0.00 | 76 | 1021.0 |
| 20260906211951 | 78 | 112 | 0.9 | 2.6 | 0.00 | 0.00 | 0.00 | 76 | 1021.0 |
| 20260906211446 | 78 | 105 | 0.9 | 1.7 | 0.00 | 0.00 | 0.00 | 76 | 1021.4 |
| 20260906210942 | 78 | 155 | 0.0 | 0.9 | 0.00 | 0.00 | 0.00 | 76 | 1021.2 |
| 20260906210437 | 78 | 108 | 0.0 | 4.3 | 0.00 | 0.00 | 0.00 | 76 | 1021.3 |
| 20260906205930 | 78 | 120 | 0.0 | 5.2 | 0.00 | 0.00 | 0.00 | 76 | 1021.6 |
| 20260906205427 | 78 | 118 | 1.7 | 2.6 | 0.00 | 0.00 | 0.00 | 75 | 1021.7 |
| 20260906204923 | 78 | 138 | 0.0 | 4.3 | 0.00 | 0.00 | 0.00 | 74 | 1021.8 |
| 20260906204422 | 79 | 71 | 0.9 | 0.9 | 0.00 | 0.00 | 0.00 | 74 | 1021.9 |
| 20260906203921 | 78 | 135 | 2.6 | 4.3 | 0.00 | 0.00 | 0.00 | 73 | 1022.0 |
| 20260906203417 | 79 | 117 | 1.7 | 5.2 | 0.00 | 0.00 | 0.00 | 73 | 1022.0 |
| 20260906202914 | 79 | 266 | 2.6 | 5.2 | 0.00 | 0.00 | 0.00 | 72 | 1021.8 |
| 20260906202413 | 79 | 162 | 2.6 | 4.3 | 0.00 | 0.00 | 0.00 | 73 | 1021.9 |
| 20260906201908 | 79 | 181 | 2.6 | 2.6 | 0.00 | 0.00 | 0.00 | 73 | 1021.9 |
| 20260906201402 | 79 | 85 | 0.9 | 5.2 | 0.00 | 0.00 | 0.00 | 73 | 1021.9 |
| 20260906200857 | 80 | 147 | 1.7 | 2.6 | 0.00 | 0.00 | 0.00 | 73 | 1021.5 |
| 20260906200353 | 79 | 129 | 0.9 | 2.6 | 0.00 | 0.00 | 0.00 | 74 | 1021.3 |
| 20260906195848 | 79 | 110 | 2.6 | 6.1 | 0.00 | 0.00 | 0.00 | 75 | 1021.4 |
| 20260906195344 | 79 | 82 | 0.9 | 1.7 | 0.00 | 0.00 | 0.00 | 75 | 1021.4 |
| 20260906194840 | 79 | 126 | 0.9 | 5.2 | 0.00 | 0.00 | 0.00 | 76 | 1021.3 |
| 20260906194336 | 79 | 22 | 0.9 | 5.2 | 0.00 | 0.00 | 0.00 | 76 | 1021.7 |
| 20260906193831 | 79 | 122 | 0.0 | 5.2 | 0.00 | 0.00 | 0.00 | 76 | 1021.6 |
| 20260906193326 | 78 | 326 | 0.9 | 4.3 | 0.00 | 0.00 | 0.00 | 76 | 1021.6 |
| 20260906192821 | 78 | 12 | 0.9 | 4.3 | 0.00 | 0.00 | 0.00 | 77 | 1021.7 |
| 20260906192315 | 78 | 90 | 1.7 | 2.6 | 0.00 | 0.00 | 0.00 | 77 | 1021.6 |
| 20260906191815 | 78 | 109 | 0.9 | 4.3 | 0.00 | 0.00 | 0.00 | 76 | 1021.6 |
| 20260906191310 | 78 | 102 | 0.9 | 4.3 | 0.00 | 0.00 | 0.00 | 77 | 1021.5 |
| 20260906190809 | 78 | 353 | 4.3 | 6.1 | 0.00 | 0.00 | 0.00 | 77 | 1021.5 |
| 20260906190309 | 79 | 126 | 1.7 | 4.3 | 0.00 | 0.00 | 0.00 | 75 | 1021.4 |
| 20260906185803 | 79 | 93 | 1.7 | 2.6 | 0.00 | 0.00 | 0.00 | 76 | 1021.4 |
| 20260906185305 | 79 | 76 | 0.9 | 4.3 | 0.00 | 0.00 | 0.00 | 76 | 1021.6 |
| 20260906184757 | 80 | 347 | 1.7 | 2.6 | 0.00 | 0.00 | 0.00 | 75 | 1021.5 |
| 20260906184252 | 78 | 139 | 0.0 | 5.2 | 0.00 | 0.00 | 0.00 | 77 | 1021.5 |
| 20260906183748 | 78 | 130 | 0.9 | 7.8 | 0.00 | 0.00 | 0.00 | 77 | 1021.6 |
| 20260906183244 | 78 | 56 | 2.6 | 5.2 | 0.00 | 0.00 | 0.00 | 76 | 1021.5 |
| 20260906182738 | 79 | 119 | 1.7 | 4.3 | 0.00 | 0.00 | 0.00 | 76 | 1021.6 |
| 20260906182234 | 79 | 131 | 2.6 | 5.2 | 0.00 | 0.00 | 0.00 | 77 | 1021.4 |
| 20260906181729 | 78 | 170 | 0.9 | 5.2 | 0.00 | 0.00 | 0.00 | 78 | 1021.4 |
| 20260906181226 | 78 | 83 | 3.5 | 7.0 | 0.00 | 0.00 | 0.00 | 78 | 1021.6 |
| 20260906180725 | 78 | 125 | 2.6 | 7.0 | 0.00 | 0.00 | 0.00 | 77 | 1021.6 |
| 20260906180220 | 79 | 108 | 0.9 | 2.6 | 0.00 | 0.00 | 0.00 | 76 | 1021.8 |
| 20260906175718 | 78 | 117 | 1.7 | 4.3 | 0.00 | 0.00 | 0.00 | 77 | 1022.0 |
| 20260906175214 | 77 | 96 | 1.7 | 5.2 | 0.00 | 0.00 | 0.00 | 78 | 1021.8 |
| 20260906174712 | 77 | 93 | 2.6 | 4.3 | 0.00 | 0.00 | 0.00 | 78 | 1022.0 |
| 20260906174207 | 77 | 129 | 0.9 | 4.3 | 0.00 | 0.00 | 0.00 | 79 | 1022.2 |
| 20260906173702 | 77 | 118 | 0.9 | 6.1 | 0.00 | 0.00 | 0.00 | 79 | 1021.9 |
| 20260906173157 | 77 | 132 | 0.9 | 4.3 | 0.00 | 0.00 | 0.00 | 79 | 1022.2 |
| 20260906172657 | 76 | 132 | 2.6 | 6.1 | 0.00 | 0.00 | 0.00 | 79 | 1022.3 |
| 20260906172152 | 76 | 133 | 2.6 | 5.2 | 0.00 | 0.00 | 0.00 | 80 | 1022.4 |
| 20260906171652 | 77 | 28 | 2.6 | 4.3 | 0.00 | 0.00 | 0.00 | 79 | 1022.3 |
| 20260906171148 | 76 | 126 | 0.9 | 4.3 | 0.00 | 0.00 | 0.00 | 81 | 1022.0 |
| 20260906170644 | 76 | 88 | 0.9 | 2.6 | 0.00 | 0.00 | 0.00 | 80 | 1022.4 |
| 20260906170143 | 76 | 151 | 0.9 | 2.6 | 0.00 | 0.00 | 0.00 | 81 | 1022.3 |
| 20260906165639 | 76 | 82 | 1.7 | 5.2 | 0.00 | 0.00 | 0.00 | 81 | 1022.5 |
| 20260906165135 | 76 | 359 | 1.7 | 5.2 | 0.00 | 0.00 | 0.00 | 81 | 1022.7 |
| 20260906164633 | 76 | 29 | 2.6 | 4.3 | 0.00 | 0.00 | 0.00 | 81 | 1022.5 |
| 20260906164129 | 76 | 55 | 1.7 | 6.1 | 0.00 | 0.00 | 0.00 | 81 | 1022.6 |
| 20260906163625 | 76 | 166 | 0.0 | 0.9 | 0.00 | 0.00 | 0.00 | 81 | 1022.6 |
| 20260906163121 | 75 | 128 | 0.9 | 4.3 | 0.00 | 0.00 | 0.00 | 82 | 1022.6 |
| 20260906162618 | 75 | 136 | 1.7 | 2.6 | 0.00 | 0.00 | 0.00 | 82 | 1022.5 |
| 20260906162112 | 74 | 102 | 0.9 | 1.7 | 0.00 | 0.00 | 0.00 | 84 | 1022.6 |
| 20260906161607 | 74 | 123 | 1.7 | 6.1 | 0.00 | 0.00 | 0.00 | 85 | 1022.6 |
| 20260906161106 | 75 | 65 | 0.0 | 2.6 | 0.00 | 0.00 | 0.00 | 85 | 1022.8 |
| 20260906160605 | 74 | 183 | 0.9 | 1.7 | 0.00 | 0.00 | 0.00 | 85 | 1022.6 |
| 20260906160104 | 73 | 4 | 0.9 | 6.1 | 0.00 | 0.00 | 0.00 | 86 | 1022.5 |
| 20260906155601 | 73 | 101 | 2.6 | 4.3 | 0.00 | 0.00 | 0.00 | 86 | 1022.6 |
| 20260906155058 | 73 | 117 | 0.0 | 2.6 | 0.00 | 0.00 | 0.00 | 86 | 1022.5 |
| 20260906154553 | 74 | 85 | 1.7 | 6.1 | 0.00 | 0.00 | 0.00 | 85 | 1022.4 |
| 20260906154051 | 73 | 5 | 1.7 | 2.6 | 0.00 | 0.00 | 0.00 | 87 | 1022.7 |
| 20260906153550 | 72 | 175 | 1.7 | 5.2 | 0.00 | 0.00 | 0.00 | 87 | 1022.7 |
| 20260906153045 | 73 | 23 | 2.6 | 2.6 | 0.00 | 0.00 | 0.00 | 87 | 1022.9 |
| 20260906152544 | 73 | 85 | 2.6 | 6.1 | 0.00 | 0.00 | 0.00 | 86 | 1022.9 |
| 20260906152039 | 73 | 53 | 4.3 | 6.1 | 0.00 | 0.00 | 0.00 | 87 | 1023.0 |
| 20260906151534 | 71 | 118 | 0.0 | 0.9 | 0.00 | 0.00 | 0.00 | 89 | 1022.9 |
| 20260906151030 | 71 | 159 | 2.6 | 4.3 | 0.00 | 0.00 | 0.00 | 89 | 1022.8 |
| 20260906150525 | 71 | 101 | 1.7 | 6.1 | 0.00 | 0.00 | 0.00 | 91 | 1022.8 |
| 20260906150020 | 71 | 106 | 1.7 | 2.6 | 0.00 | 0.00 | 0.00 | 91 | 1022.7 |
| 20260906145519 | 71 | 84 | 1.7 | 2.6 | 0.00 | 0.00 | 0.00 | 92 | 1022.5 |
| 20260906145014 | 71 | 179 | 0.9 | 0.9 | 0.00 | 0.00 | 0.00 | 92 | 1022.6 |
| 20260906144508 | 70 | 146 | 0.0 | 1.7 | 0.00 | 0.00 | 0.00 | 92 | 1022.5 |
| 20260906143958 | 70 | 115 | 0.9 | 5.2 | 0.00 | 0.00 | 0.00 | 92 | 1022.4 |
| 20260906143453 | 70 | 105 | 0.9 | 1.7 | 0.00 | 0.00 | 0.00 | 92 | 1022.6 |
| 20260906142949 | 70 | 77 | 2.6 | 4.3 | 0.00 | 0.00 | 0.00 | 93 | 1022.7 |
| 20260906142449 | 69 | 97 | 0.0 | 4.3 | 0.00 | 0.00 | 0.00 | 94 | 1022.6 |
| 20260906141943 | 69 | 137 | 3.5 | 5.2 | 0.00 | 0.00 | 0.00 | 94 | 1022.5 |
| 20260906141437 | 69 | 115 | 1.7 | 4.3 | 0.00 | 0.00 | 0.00 | 95 | 1022.9 |
| 20260906140932 | 69 | 30 | 2.6 | 6.1 | 0.00 | 0.00 | 0.00 | 95 | 1022.6 |
| 20260906140426 | 69 | 134 | 0.9 | 1.7 | 0.00 | 0.00 | 0.00 | 96 | 1022.7 |
| 20260906135919 | 69 | 115 | 0.0 | 5.2 | 0.00 | 0.00 | 0.00 | 96 | 1022.7 |
| 20260906135418 | 69 | 155 | 1.7 | 2.6 | 0.00 | 0.00 | 0.00 | 96 | 1022.7 |
| 20260906134914 | 69 | 50 | 2.6 | 2.6 | 0.00 | 0.00 | 0.00 | 97 | 1022.6 |
| 20260906134409 | 69 | 82 | 0.0 | 0.9 | 0.00 | 0.00 | 0.00 | 97 | 1022.3 |
| 20260906133904 | 68 | 130 | 0.9 | 1.7 | 0.00 | 0.00 | 0.00 | 97 | 1022.5 |
| 20260906133400 | 68 | 50 | 2.6 | 4.3 | 0.00 | 0.00 | 0.00 | 98 | 1022.2 |
| 20260906132855 | 68 | 86 | 0.0 | 1.7 | 0.00 | 0.00 | 0.00 | 98 | 1022.4 |
| 20260906132350 | 68 | 121 | 0.9 | 4.3 | 0.00 | 0.00 | 0.00 | 98 | 1022.0 |
| 20260906131846 | 68 | 42 | 1.7 | 5.2 | 0.00 | 0.00 | 0.00 | 99 | 1022.3 |
| 20260906131341 | 68 | 63 | 0.9 | 4.3 | 0.00 | 0.00 | 0.00 | 99 | 1022.0 |
| 20260906130837 | 68 | 73 | 2.6 | 4.3 | 0.00 | 0.00 | 0.00 | 99 | 1022.2 |
| 20260906130336 | 68 | 118 | 0.9 | 5.2 | 0.00 | 0.00 | 0.00 | 99 | 1022.0 |
| 20260906125835 | 68 | 129 | 0.0 | 1.7 | 0.00 | 0.00 | 0.00 | 99 | 1022.2 |
| 20260906125332 | 68 | 107 | 0.9 | 1.7 | 0.00 | 0.00 | 0.00 | 99 | 1021.9 |
| 20260906124827 | 68 | 79 | 0.9 | 1.7 | 0.00 | 0.00 | 0.00 | 99 | 1022.2 |
| 20260906124324 | 68 | 111 | 0.0 | 0.0 | 0.00 | 0.00 | 0.00 | 99 | 1022.0 |
| 20260906123823 | 67 | 70 | 0.0 | 1.7 | 0.00 | 0.00 | 0.00 | 99 | 1021.9 |
| 20260906123318 | 67 | 40 | 0.0 | 0.0 | 0.00 | 0.00 | 0.00 | 99 | 1021.9 |
| 20260906122817 | 67 | 29 | 0.9 | 0.9 | 0.00 | 0.00 | 0.00 | 99 | 1022.2 |
| 20260906122312 | 67 | 56 | 1.7 | 2.6 | 0.00 | 0.00 | 0.00 | 99 | 1022.0 |
| 20260906121809 | 67 | 78 | 0.9 | 1.7 | 0.00 | 0.00 | 0.00 | 99 | 1022.0 |
| 20260906121305 | 67 | 92 | 0.0 | 1.7 | 0.00 | 0.00 | 0.00 | 99 | 1021.8 |
| 20260906120801 | 67 | 27 | 0.9 | 2.6 | 0.00 | 0.00 | 0.00 | 99 | 1021.9 |
| 20260906120256 | 67 | 30 | 1.7 | 1.7 | 0.00 | 0.00 | 0.00 | 99 | 1021.7 |
| 20260906115752 | 67 | 70 | 0.9 | 2.6 | 0.00 | 0.00 | 0.00 | 99 | 1021.6 |
| 20260906115242 | 67 | 69 | 0.0 | 0.0 | 0.00 | 0.00 | 0.00 | 99 | 1021.7 |
| 20260906114741 | 67 | 75 | 0.0 | 0.0 | 0.00 | 0.00 | 0.00 | 99 | 1021.7 |
| 20260906114236 | 67 | 77 | 0.0 | 0.0 | 0.00 | 0.00 | 0.00 | 99 | 1021.7 |
| 20260906113731 | 67 | 1 | 0.0 | 0.9 | 0.00 | 0.00 | 0.00 | 99 | 1021.6 |
| 20260906113230 | 67 | 42 | 0.0 | 0.9 | 0.00 | 0.00 | 0.00 | 99 | 1021.5 |
| 20260906112725 | 67 | 61 | 0.0 | 0.9 | 0.00 | 0.00 | 0.00 | 99 | 1021.6 |
| 20260906112222 | 67 | 66 | 0.0 | 1.7 | 0.00 | 0.00 | 0.00 | 99 | 1021.6 |
| 20260906111721 | 67 | 34 | 0.9 | 0.9 | 0.00 | 0.00 | 0.00 | 99 | 1021.4 |
| 20260906111216 | 67 | 82 | 0.0 | 0.9 | 0.00 | 0.00 | 0.00 | 99 | 1021.3 |
| 20260906110711 | 67 | 81 | 0.0 | 0.9 | 0.00 | 0.00 | 0.00 | 98 | 1021.3 |
| 20260906110206 | 67 | 85 | 0.0 | 0.9 | 0.00 | 0.00 | 0.00 | 98 | 1021.2 |
| 20260906105700 | 67 | 51 | 0.0 | 0.0 | 0.00 | 0.00 | 0.00 | 98 | 1021.4 |
| 20260906105156 | 67 | 91 | 0.0 | 0.9 | 0.00 | 0.00 | 0.00 | 98 | 1021.2 |
| 20260906104655 | 68 | 66 | 0.0 | 0.9 | 0.00 | 0.00 | 0.00 | 98 | 1021.2 |
| 20260906104149 | 68 | 25 | 0.0 | 0.9 | 0.00 | 0.00 | 0.00 | 98 | 1021.1 |
| 20260906103647 | 68 | 101 | 0.0 | 0.9 | 0.00 | 0.00 | 0.00 | 98 | 1021.2 |
| 20260906103142 | 68 | 88 | 0.0 | 0.9 | 0.00 | 0.00 | 0.00 | 98 | 1021.1 |
| 20260906102637 | 68 | 123 | 0.0 | 0.0 | 0.00 | 0.00 | 0.00 | 97 | 1021.1 |
| 20260906102132 | 68 | 57 | 0.9 | 4.3 | 0.00 | 0.00 | 0.00 | 97 | 1021.2 |
| 20260906101631 | 68 | 102 | 0.0 | 1.7 | 0.00 | 0.00 | 0.00 | 97 | 1021.0 |
| 20260906101126 | 68 | 30 | 1.7 | 2.6 | 0.00 | 0.00 | 0.00 | 97 | 1021.1 |
| 20260906100622 | 68 | 114 | 0.0 | 1.7 | 0.00 | 0.00 | 0.00 | 97 | 1021.1 |
| 20260906100121 | 68 | 182 | 0.9 | 0.9 | 0.00 | 0.00 | 0.00 | 97 | 1020.8 |
| 20260906095616 | 68 | 38 | 2.6 | 2.6 | 0.00 | 0.00 | 0.00 | 97 | 1020.7 |
| 20260906095112 | 68 | 70 | 0.0 | 1.7 | 0.00 | 0.00 | 0.00 | 97 | 1020.6 |
| 20260906094611 | 69 | 52 | 0.0 | 0.9 | 0.00 | 0.00 | 0.00 | 97 | 1020.3 |
| 20260906094107 | 69 | 95 | 0.0 | 1.7 | 0.00 | 0.00 | 0.00 | 96 | 1020.4 |
| 20260906093602 | 69 | 78 | 0.9 | 0.9 | 0.00 | 0.00 | 0.00 | 96 | 1020.4 |
| 20260906093056 | 69 | 120 | 0.9 | 1.7 | 0.00 | 0.00 | 0.00 | 96 | 1020.3 |
| 20260906092552 | 69 | 43 | 2.6 | 2.6 | 0.00 | 0.00 | 0.00 | 96 | 1020.4 |
| 20260906092041 | 69 | 78 | 0.0 | 0.9 | 0.00 | 0.00 | 0.00 | 96 | 1020.3 |
| 20260906091537 | 69 | 112 | 0.0 | 5.2 | 0.00 | 0.00 | 0.00 | 96 | 1020.3 |
| 20260906091033 | 69 | 55 | 0.9 | 0.9 | 0.00 | 0.00 | 0.00 | 96 | 1020.4 |
| 20260906090533 | 69 | 120 | 1.7 | 1.7 | 0.00 | 0.00 | 0.00 | 96 | 1020.3 |
| 20260906090028 | 69 | 119 | 0.9 | 4.3 | 0.00 | 0.00 | 0.00 | 96 | 1020.4 |
| 20260906085522 | 69 | 32 | 0.9 | 1.7 | 0.00 | 0.00 | 0.00 | 96 | 1020.2 |
| 20260906085021 | 69 | 112 | 0.9 | 1.7 | 0.00 | 0.00 | 0.00 | 96 | 1020.4 |
| 20260906084516 | 69 | 31 | 0.9 | 4.3 | 0.00 | 0.00 | 0.00 | 96 | 1020.4 |
| 20260906084014 | 69 | 264 | 0.0 | 0.9 | 0.00 | 0.00 | 0.00 | 96 | 1020.5 |
| 20260906083511 | 69 | 69 | 0.9 | 5.2 | 0.00 | 0.00 | 0.00 | 96 | 1020.5 |
| 20260906083010 | 69 | 41 | 0.0 | 4.3 | 0.00 | 0.00 | 0.00 | 96 | 1020.5 |
| 20260906082505 | 69 | 120 | 0.0 | 1.7 | 0.00 | 0.00 | 0.00 | 96 | 1020.6 |
| 20260906082001 | 69 | 40 | 1.7 | 2.6 | 0.00 | 0.00 | 0.00 | 95 | 1020.5 |
| 20260906081456 | 69 | 61 | 0.0 | 1.7 | 0.00 | 0.00 | 0.00 | 95 | 1020.5 |
| 20260906080952 | 69 | 6 | 0.9 | 2.6 | 0.00 | 0.00 | 0.00 | 95 | 1020.6 |
| 20260906080449 | 69 | 25 | 0.9 | 1.7 | 0.00 | 0.00 | 0.00 | 95 | 1020.5 |
| 20260906075949 | 69 | 80 | 0.0 | 0.9 | 0.00 | 0.00 | 0.00 | 95 | 1020.5 |
| 20260906075444 | 69 | 341 | 0.9 | 2.6 | 0.00 | 0.00 | 0.00 | 95 | 1020.6 |
| 20260906074938 | 69 | 62 | 0.0 | 1.7 | 0.00 | 0.00 | 0.00 | 95 | 1020.7 |
| 20260906074433 | 69 | 85 | 0.0 | 0.9 | 0.00 | 0.00 | 0.00 | 95 | 1020.7 |
| 20260906073931 | 69 | 83 | 0.0 | 0.9 | 0.00 | 0.00 | 0.00 | 95 | 1020.6 |
| 20260906073426 | 70 | 80 | 0.0 | 0.9 | 0.00 | 0.00 | 0.00 | 94 | 1020.6 |
| 20260906072923 | 70 | 79 | 0.0 | 0.9 | 0.00 | 0.00 | 0.00 | 94 | 1020.7 |
| 20260906072418 | 70 | 91 | 0.9 | 0.9 | 0.00 | 0.00 | 0.00 | 94 | 1020.8 |
| 20260906071914 | 70 | 36 | 0.9 | 0.9 | 0.00 | 0.00 | 0.00 | 94 | 1020.8 |
| 20260906071409 | 70 | 76 | 0.9 | 1.7 | 0.00 | 0.00 | 0.00 | 94 | 1020.8 |
| 20260906070905 | 70 | 76 | 0.9 | 0.9 | 0.00 | 0.00 | 0.00 | 93 | 1020.8 |
| 20260906070401 | 70 | 103 | 0.0 | 0.9 | 0.00 | 0.00 | 0.00 | 93 | 1020.8 |
| 20260906065856 | 71 | 50 | 0.0 | 2.6 | 0.00 | 0.00 | 0.00 | 93 | 1020.5 |
| 20260906065350 | 71 | 19 | 0.9 | 0.9 | 0.00 | 0.00 | 0.00 | 93 | 1020.6 |
| 20260906064847 | 71 | 7 | 0.0 | 4.3 | 0.00 | 0.00 | 0.00 | 93 | 1020.7 |
| 20260906064343 | 71 | 82 | 0.9 | 1.7 | 0.00 | 0.00 | 0.00 | 93 | 1020.8 |
| 20260906063842 | 71 | 97 | 0.0 | 1.7 | 0.00 | 0.00 | 0.00 | 93 | 1020.9 |
| 20260906063338 | 71 | 36 | 0.9 | 1.7 | 0.00 | 0.00 | 0.00 | 93 | 1020.6 |
| 20260906062833 | 71 | 45 | 0.9 | 1.7 | 0.00 | 0.00 | 0.00 | 92 | 1020.7 |
| 20260906062332 | 71 | 32 | 0.9 | 2.6 | 0.00 | 0.00 | 0.00 | 93 | 1020.9 |
| 20260906061828 | 71 | 35 | 0.9 | 2.6 | 0.00 | 0.00 | 0.00 | 93 | 1021.1 |
| 20260906061324 | 71 | 57 | 0.9 | 0.9 | 0.00 | 0.00 | 0.00 | 92 | 1020.9 |
| 20260906060818 | 71 | 102 | 0.0 | 0.9 | 0.00 | 0.00 | 0.00 | 92 | 1020.9 |
| 20260906060317 | 71 | 97 | 0.0 | 1.7 | 0.00 | 0.00 | 0.00 | 92 | 1020.8 |
| 20260906055812 | 71 | 64 | 0.9 | 0.9 | 0.00 | 0.00 | 0.00 | 92 | 1020.8 |
| 20260906055307 | 71 | 85 | 0.0 | 2.6 | 0.00 | 0.00 | 0.00 | 92 | 1020.8 |
| 20260906054802 | 71 | 71 | 0.0 | 1.7 | 0.00 | 0.00 | 0.00 | 92 | 1021.0 |
| 20260906054258 | 71 | 66 | 0.9 | 0.9 | 0.00 | 0.00 | 0.00 | 91 | 1020.9 |
| 20260906053754 | 71 | 44 | 0.9 | 1.7 | 0.00 | 0.00 | 0.00 | 91 | 1021.0 |
| 20260906053250 | 72 | 66 | 0.0 | 0.0 | 0.00 | 0.00 | 0.00 | 91 | 1020.9 |
| 20260906052744 | 72 | 48 | 0.0 | 0.0 | 0.00 | 0.00 | 0.00 | 91 | 1020.7 |
| 20260906052240 | 72 | 71 | 0.0 | 0.0 | 0.00 | 0.00 | 0.00 | 91 | 1020.9 |
| 20260906051738 | 72 | 85 | 0.0 | 0.0 | 0.00 | 0.00 | 0.00 | 91 | 1020.7 |
| 20260906051237 | 72 | 82 | 0.0 | 0.0 | 0.00 | 0.00 | 0.00 | 90 | 1021.0 |
| 20260906050732 | 72 | 65 | 0.0 | 0.0 | 0.00 | 0.00 | 0.00 | 90 | 1020.9 |
| 20260906050227 | 72 | 60 | 0.0 | 0.0 | 0.00 | 0.00 | 0.00 | 90 | 1020.9 |
| 20260906045726 | 72 | 68 | 0.0 | 0.0 | 0.00 | 0.00 | 0.00 | 90 | 1021.1 |
| 20260906045221 | 72 | 87 | 0.0 | 0.0 | 0.00 | 0.00 | 0.00 | 90 | 1021.0 |
| 20260906044717 | 72 | 83 | 0.0 | 0.0 | 0.00 | 0.00 | 0.00 | 90 | 1021.1 |
| 20260906044212 | 72 | 77 | 0.0 | 0.0 | 0.00 | 0.00 | 0.00 | 90 | 1021.0 |
| 20260906043708 | 72 | 56 | 0.0 | 0.0 | 0.00 | 0.00 | 0.00 | 90 | 1021.0 |
| 20260906043204 | 72 | 65 | 0.0 | 0.0 | 0.00 | 0.00 | 0.00 | 90 | 1021.0 |
| 20260906042703 | 72 | 77 | 0.0 | 0.0 | 0.00 | 0.00 | 0.00 | 90 | 1021.1 |
| 20260906042157 | 72 | 83 | 0.0 | 0.0 | 0.00 | 0.00 | 0.00 | 90 | 1021.0 |
| 20260906041653 | 72 | 81 | 0.0 | 0.0 | 0.00 | 0.00 | 0.00 | 90 | 1021.2 |
| 20260906041148 | 72 | 82 | 0.0 | 0.0 | 0.00 | 0.00 | 0.00 | 90 | 1021.2 |
| 20260906040643 | 72 | 77 | 0.0 | 0.0 | 0.00 | 0.00 | 0.00 | 90 | 1021.1 |
| 20260906040139 | 72 | 81 | 0.0 | 0.0 | 0.00 | 0.00 | 0.00 | 89 | 1021.5 |
| 20260906035633 | 72 | 82 | 0.0 | 0.0 | 0.00 | 0.00 | 0.00 | 89 | 1021.1 |
| 20260906035129 | 72 | 82 | 0.0 | 0.0 | 0.00 | 0.00 | 0.00 | 89 | 1021.2 |
| 20260906034624 | 72 | 82 | 0.0 | 0.0 | 0.00 | 0.00 | 0.00 | 89 | 1021.2 |
| 20260906034118 | 72 | 63 | 0.0 | 0.0 | 0.00 | 0.00 | 0.00 | 89 | 1021.1 |
| 20260906033614 | 72 | 84 | 0.0 | 0.0 | 0.00 | 0.00 | 0.00 | 89 | 1021.1 |
| 20260906033109 | 72 | 82 | 0.0 | 0.0 | 0.00 | 0.00 | 0.00 | 89 | 1021.2 |
| 20260906032606 | 72 | 67 | 0.0 | 0.0 | 0.00 | 0.00 | 0.00 | 89 | 1021.2 |
| 20260906032105 | 72 | 78 | 0.0 | 0.0 | 0.00 | 0.00 | 0.00 | 89 | 1021.1 |
| 20260906031601 | 72 | 78 | 0.0 | 0.0 | 0.00 | 0.00 | 0.00 | 88 | 1021.2 |
| 20260906031056 | 72 | 82 | 0.0 | 0.0 | 0.00 | 0.00 | 0.00 | 88 | 1021.4 |
| 20260906030555 | 73 | 81 | 0.0 | 0.0 | 0.00 | 0.00 | 0.00 | 88 | 1021.4 |
| 20260906030055 | 73 | 82 | 0.0 | 0.0 | 0.00 | 0.00 | 0.00 | 88 | 1021.5 |
| 20260906025550 | 73 | 78 | 0.0 | 0.0 | 0.00 | 0.00 | 0.00 | 87 | 1021.4 |
| 20260906025048 | 73 | 59 | 0.0 | 0.0 | 0.00 | 0.00 | 0.00 | 87 | 1021.0 |
| 20260906024544 | 73 | 60 | 0.0 | 0.0 | 0.00 | 0.00 | 0.00 | 86 | 1021.2 |
| 20260906024043 | 73 | 48 | 0.0 | 0.0 | 0.00 | 0.00 | 0.00 | 86 | 1021.0 |
| 20260906023540 | 73 | 85 | 0.0 | 0.9 | 0.00 | 0.00 | 0.00 | 86 | 1020.8 |
| 20260906023034 | 74 | 95 | 0.0 | 0.0 | 0.00 | 0.00 | 0.00 | 85 | 1020.7 |
| 20260906022530 | 74 | 123 | 0.0 | 0.0 | 0.00 | 0.00 | 0.00 | 85 | 1020.8 |
| 20260906022025 | 74 | 130 | 0.0 | 0.0 | 0.00 | 0.00 | 0.00 | 85 | 1020.7 |
| 20260906021520 | 74 | 145 | 0.0 | 0.0 | 0.00 | 0.00 | 0.00 | 85 | 1020.6 |
| 20260906021014 | 73 | 125 | 0.0 | 0.0 | 0.00 | 0.00 | 0.00 | 85 | 1020.4 |
| 20260906020514 | 74 | 121 | 0.0 | 0.0 | 0.00 | 0.00 | 0.00 | 85 | 1020.3 |
| 20260906020013 | 74 | 75 | 0.9 | 0.9 | 0.00 | 0.00 | 0.00 | 85 | 1020.0 |
| 20260906015513 | 74 | 93 | 0.0 | 0.0 | 0.00 | 0.00 | 0.00 | 84 | 1019.8 |
| 20260906015012 | 74 | 86 | 0.0 | 0.9 | 0.00 | 0.00 | 0.00 | 84 | 1019.9 |
| 20260906014507 | 74 | 62 | 0.9 | 0.9 | 0.00 | 0.00 | 0.00 | 84 | 1019.7 |
| 20260906014003 | 75 | 47 | 0.0 | 0.9 | 0.00 | 0.00 | 0.00 | 83 | 1019.6 |
| 20260906013458 | 75 | 102 | 0.0 | 0.9 | 0.00 | 0.00 | 0.00 | 83 | 1019.5 |
| 20260906012954 | 75 | 73 | 0.9 | 1.7 | 0.00 | 0.00 | 0.00 | 82 | 1019.6 |
| 20260906012449 | 75 | 139 | 0.9 | 0.9 | 0.00 | 0.00 | 0.00 | 82 | 1019.3 |
| 20260906011948 | 75 | 104 | 0.0 | 0.9 | 0.00 | 0.00 | 0.00 | 82 | 1019.4 |
| 20260906011444 | 76 | 111 | 0.9 | 0.9 | 0.00 | 0.00 | 0.00 | 81 | 1019.5 |
| 20260906010939 | 76 | 113 | 0.0 | 2.6 | 0.00 | 0.00 | 0.00 | 80 | 1019.4 |
| 20260906010434 | 76 | 123 | 0.0 | 0.9 | 0.00 | 0.00 | 0.00 | 80 | 1019.3 |
| 20260906005930 | 77 | 100 | 0.9 | 2.6 | 0.00 | 0.00 | 0.00 | 80 | 1019.3 |
| 20260906005430 | 77 | 111 | 0.0 | 4.3 | 0.00 | 0.00 | 0.00 | 79 | 1018.9 |
| 20260906004928 | 77 | 89 | 1.7 | 2.6 | 0.00 | 0.00 | 0.00 | 79 | 1018.8 |
| 20260906004422 | 77 | 95 | 0.9 | 1.7 | 0.00 | 0.00 | 0.00 | 79 | 1018.4 |
| 20260906003919 | 78 | 111 | 0.9 | 4.3 | 0.00 | 0.00 | 0.00 | 78 | 1018.5 |
| 20260906003414 | 78 | 95 | 0.9 | 5.2 | 0.00 | 0.00 | 0.00 | 78 | 1018.5 |
| 20260906002909 | 79 | 113 | 2.6 | 5.2 | 0.00 | 0.00 | 0.00 | 77 | 1018.9 |
| 20260906002409 | 79 | 91 | 0.0 | 1.7 | 0.00 | 0.00 | 0.00 | 75 | 1018.9 |
| 20260906001904 | 80 | 82 | 0.9 | 0.9 | 0.00 | 0.00 | 0.00 | 74 | 1018.9 |
| 20260906001400 | 80 | 108 | 0.0 | 6.1 | 0.00 | 0.00 | 0.00 | 74 | 1019.0 |
| 20260906000900 | 80 | 39 | 1.7 | 6.1 | 0.00 | 0.00 | 0.00 | 73 | 1018.8 |
| 20260906000400 | 80 | 18 | 0.9 | 6.1 | 0.00 | 0.00 | 0.00 | 73 | 1019.0 |
| 20260905235855 | 81 | 92 | 0.9 | 2.6 | 0.00 | 0.00 | 0.00 | 72 | 1018.6 |
| 20260905235349 | 81 | 74 | 0.9 | 1.7 | 0.00 | 0.00 | 0.00 | 72 | 1018.6 |
| 20260905234845 | 81 | 79 | 0.0 | 6.1 | 0.00 | 0.00 | 0.00 | 71 | 1018.4 |
| 20260905234340 | 81 | 43 | 2.6 | 7.0 | 0.00 | 0.00 | 0.00 | 71 | 1018.5 |
| 20260905233835 | 81 | 84 | 0.0 | 2.6 | 0.00 | 0.00 | 0.00 | 71 | 1018.3 |
| 20260905233330 | 82 | 354 | 0.9 | 6.1 | 0.00 | 0.00 | 0.00 | 70 | 1018.2 |
| 20260905232829 | 82 | 288 | 1.7 | 4.3 | 0.00 | 0.00 | 0.00 | 70 | 1018.2 |
| 20260905232325 | 82 | 195 | 1.7 | 5.2 | 0.00 | 0.00 | 0.00 | 70 | 1018.1 |
| 20260905231821 | 83 | 77 | 0.0 | 6.1 | 0.00 | 0.00 | 0.00 | 68 | 1018.2 |
| 20260905231316 | 83 | 140 | 1.7 | 6.1 | 0.00 | 0.00 | 0.00 | 67 | 1017.8 |
| 20260905230812 | 83 | 15 | 2.6 | 4.3 | 0.00 | 0.00 | 0.00 | 66 | 1017.9 |
| 20260905230310 | 83 | 95 | 0.0 | 5.2 | 0.00 | 0.00 | 0.00 | 65 | 1018.1 |
| 20260905225809 | 84 | 27 | 3.5 | 6.1 | 0.00 | 0.00 | 0.00 | 65 | 1018.1 |
| 20260905225306 | 84 | 112 | 1.7 | 4.3 | 0.00 | 0.00 | 0.00 | 65 | 1018.3 |
| 20260905224804 | 84 | 45 | 1.7 | 8.7 | 0.00 | 0.00 | 0.00 | 66 | 1018.3 |
| 20260905224300 | 84 | 202 | 0.9 | 2.6 | 0.00 | 0.00 | 0.00 | 66 | 1018.3 |
| 20260905223755 | 84 | 256 | 2.6 | 2.6 | 0.00 | 0.00 | 0.00 | 65 | 1018.2 |
| 20260905223252 | 84 | 223 | 1.7 | 5.2 | 0.00 | 0.00 | 0.00 | 65 | 1018.2 |
| 20260905222747 | 84 | 173 | 2.6 | 4.3 | 0.00 | 0.00 | 0.00 | 65 | 1018.3 |